FW8329 Weather Reports


time (UTC)temp
C
wind
direction
speed
KPH
gust
KPH
rain 1hr
cm
rain 24hr
cm
rain mn
cm
humidity
%
barometer
mb
20260504234513 8 37 8.0 19.3 0.00 0.00 0.00 50 1005.4
20260504233013 9 100 8.0 19.3 0.00 0.00 0.00 48 1005.4
20260504231512 10 109 8.0 19.3 0.00 0.00 0.00 43 1005.1
20260504230013 10 46 8.0 22.5 0.00 0.00 0.00 44 1005.1
20260504224510 10 68 6.4 17.7 0.00 0.00 0.00 45 1004.9
20260504223010 10 12 8.0 20.9 0.00 0.00 0.00 43 1004.8
20260504221511 10 64 8.0 19.3 0.00 0.00 0.00 44 1004.7
20260504220009 9 74 4.8 17.7 0.00 0.00 0.00 45 1004.7
20260504214518 10 87 6.4 20.9 0.00 0.00 0.00 46 1004.8
20260504213008 10 38 6.4 20.9 0.00 0.00 0.00 44 1004.9
20260504211512 10 64 3.2 19.3 0.00 0.00 0.00 44 1004.9
20260504210005 10 4 9.7 24.1 0.00 0.00 0.00 45 1004.9
20260504204509 9 337 6.4 20.9 0.00 0.00 0.00 46 1005.1
20260504203006 8 46 6.4 16.1 0.00 0.00 0.00 47 1005.0
20260504201504 8 53 8.0 22.5 0.00 0.00 0.00 47 1004.9
20260504200003 8 56 8.0 20.9 0.00 0.00 0.00 48 1004.8
20260504194501 8 45 6.4 20.9 0.00 0.00 0.00 50 1004.8
20260504193001 8 26 6.4 17.7 0.00 0.00 0.00 51 1004.8
20260504191502 8 64 6.4 19.3 0.00 0.00 0.00 49 1004.8
20260504190116 8 20 8.0 19.3 0.00 0.00 0.00 50 1004.8
20260504184631 8 62 4.8 22.5 0.00 0.00 0.00 49 1004.8
20260504183059 9 52 6.4 17.7 0.00 0.00 0.00 50 1004.7
20260504181559 9 37 9.7 17.7 0.00 0.00 0.00 47 1004.8
20260504180058 9 13 8.0 19.3 0.00 0.00 0.00 48 1004.8
20260504174556 10 62 8.0 19.3 0.00 0.00 0.00 46 1004.9
20260504173057 9 35 11.3 22.5 0.00 0.00 0.00 45 1004.9
20260504171600 8 10 6.4 19.3 0.00 0.00 0.00 48 1005.0
20260504081543 4 46 0.0 16.1 0.00 0.00 0.00 59 1003.6
20260504050018 6 243 3.2 11.3 0.00 0.00 0.00 53 1002.0
20260504044517 6 231 1.6 8.0 0.00 0.00 0.00 54 1002.0
20260504043016 6 248 3.2 8.0 0.00 0.00 0.00 54 1001.8
20260504041515 6 237 1.6 6.4 0.00 0.00 0.00 55 1001.9
20260504040015 6 219 1.6 8.0 0.00 0.00 0.00 56 1001.7
20260504034525 5 220 0.0 1.6 0.00 0.00 0.00 65 1001.6
20260504033024 6 238 0.0 1.6 0.00 0.00 0.00 63 1001.5
20260504031514 7 229 0.0 3.2 0.00 0.00 0.00 60 1001.4
20260504030014 7 205 0.0 0.0 0.00 0.00 0.00 56 1001.2
20260504024533 9 226 0.0 1.6 0.00 0.00 0.00 52 1001.0
20260504023012 10 174 1.6 3.2 0.00 0.00 0.00 50 1000.8
20260504021511 11 331 0.0 1.6 0.00 0.00 0.00 49 1000.6
20260504020011 12 128 0.0 0.0 0.00 0.00 0.00 43 1000.6
20260504014510 13 128 0.0 3.2 0.00 0.00 0.00 39 1000.6
20260504013014 15 144 0.0 3.2 0.00 0.00 0.00 34 1000.7
20260504011508 17 151 0.0 12.9 0.00 0.00 0.00 27 1000.8
20260504010007 17 158 4.8 24.1 0.00 0.00 0.00 24 1000.8
20260504004510 19 33 1.6 12.9 0.00 0.00 0.00 25 1001.0
20260504003005 19 12 4.8 25.7 0.00 0.00 0.00 25 1000.9
20260504001504 20 176 4.8 16.1 0.00 0.00 0.00 21 1001.1
20260504000002 20 266 3.2 14.5 0.00 0.00 0.00 20 1001.1